Flag for Iran Weather past 2 weeks in Mashhad, Iran

Now
75 °F

Sunny.


Feels Like: 75 °F
Forecast: 59 / 88 °F
Wind: 14 mph from East

Location: Mashhad Airport

Current Time: Jul 30, 2014 at 9:27:05 PM

Latest Report: Jul 30, 2014 at 9:00 PM


Visibility: 10 mi

Pressure: 30.01 "Hg

Humidity: 14%

Dew point: 23 °F

Location of MashhadLocation

Historic Weather in Mashhad — Graph

°F

Mashhad temperature yesterday

Maximum temperature yesterday: 90 °F (at 2:55 PM)
Minimum temperature yesterday: 70 °F (at 4:00 AM)
Average temperature yesterday: 78 °F

Past Weeks' High & Low Weather Summary

 TemperatureHumidityPressure
High106 °F (Jul 22, 2:00 PM)44% (Jul 28, 4:55 AM)30.01 "Hg (Jul 28, 4:55 AM)
Low63 °F (Jul 18, 5:30 AM)3% (Jul 26, 1:55 PM)29.68 "Hg (Jul 22, 3:00 PM)
Average83 °F16%29.87 "Hg
* Reported Jul 15 7:30 PM — Jul 30 8:00 PM, Mashhad, Weather by CustomWeather, © 2014

Note: Actual official high and low records may vary slightly from our data, if they occured in-between our weather recording intervals... More about our weather records

Advertising

Mashhad weather history for previous 24 hours

 ConditionsComfort  
Time TempWeatherWind HumidityBarometerVisibility
8:00 PM
Jul 30
75 °FSunny.16 mph14%29.98 "Hg10 mi
7:30 PM77 °FSunny.16 mph13%29.98 "Hg10 mi
7:00 PM79 °FSunny.18 mph12%29.98 "Hg10 mi
6:30 PM81 °FSunny.16 mph12%29.95 "Hg10 mi
6:00 PM82 °FSunny.18 mph11%29.95 "Hg10 mi
5:30 PM84 °FSunny.14 mph10%29.95 "Hg10 mi
5:00 PM84 °FSunny.16 mph10%29.95 "Hg10 mi
4:30 PM84 °FSunny.16 mph10%29.95 "Hg10 mi
4:00 PM86 °FSunny.12 mph9%29.95 "Hg10 mi
3:30 PM86 °FSunny.12 mph8%29.95 "Hg10 mi
3:00 PM86 °FSunny.9 mph8%29.95 "Hg10 mi
2:30 PM86 °FSunny.9 mph10%29.95 "Hg10 mi
2:00 PM86 °FSunny.14 mph10%29.95 "Hg10 mi
1:30 PM86 °FSunny.14 mph10%29.95 "Hg10 mi
1:00 PM86 °FSunny.9 mph10%29.95 "Hg10 mi
12:30 PM82 °FSunny.7 mph11%29.98 "Hg10 mi
12:00 PM82 °FSunny.5 mph10%29.98 "Hg10 mi
11:30 AM81 °FSunny.7 mph12%29.98 "Hg10 mi
11:00 AM81 °FSunny.9 mph11%29.98 "Hg10 mi
10:30 AM79 °FSunny.12 mph11%29.98 "Hg10 mi
10:00 AM79 °FSunny.9 mph11%29.98 "Hg10 mi
9:30 AM77 °FSunny.7 mph11%29.98 "Hg10 mi
9:00 AM75 °FSunny.9 mph13%29.98 "Hg10 mi
8:30 AM73 °FSunny.12 mph12%29.98 "Hg10 mi
8:00 AM72 °FSunny.12 mph14%29.98 "Hg10 mi
7:30 AM70 °FSunny.7 mph17%29.98 "Hg10 mi
7:00 AM70 °FClear.7 mph17%29.98 "Hg10 mi
6:30 AM68 °FClear.7 mph17%29.98 "Hg10 mi
5:55 AM68 °FClear.7 mph18%29.95 "Hg10 mi
5:20 AM66 °FClear.9 mph19%29.95 "Hg10 mi
4:55 AM68 °FClear.5 mph18%29.95 "Hg10 mi
4:20 AM68 °FClear.9 mph17%29.95 "Hg10 mi
4:00 AM68 °FClear.9 mph18%29.95 "Hg10 mi
3:20 AM66 °FClear.7 mph19%29.95 "Hg10 mi
2:55 AM68 °FClear.5 mph18%29.95 "Hg10 mi
2:30 AM68 °FClear.9 mph18%29.95 "Hg10 mi
2:00 AM70 °FClear.7 mph18%29.95 "Hg10 mi
1:30 AM70 °FClear.7 mph20%29.95 "Hg10 mi
1:00 AM70 °FClear.7 mph18%29.95 "Hg10 mi
12:30 AM70 °FClear.7 mph18%29.95 "Hg10 mi
12:00 AM70 °FClear.7 mph18%29.95 "Hg10 mi
11:30 PM
Jul 29
72 °FClear.7 mph17%29.95 "Hg10 mi
11:00 PM72 °FClear.7 mph19%29.95 "Hg10 mi
10:30 PM72 °FClear.7 mph20%29.95 "Hg10 mi
10:00 PM73 °FClear.7 mph19%29.95 "Hg10 mi
9:30 PM75 °FClear.14 mph16%29.95 "Hg10 mi
9:00 PM75 °FSunny.14 mph16%29.95 "Hg10 mi
Weather by CustomWeather, © 2014

See weather overviewHow to use our weather pages